Weather History for Appleton, WI

Change the Weather History Date:

Tuesday, October 16, 2012

  Actual Average Record
Temperature  
Mean Temperature 50 °F -  
Max Temperature 62 °F 56 °F 78 °F (1968)
Min Temperature 39 °F 39 °F 24 °F (1952)
Degree Days  
Heating Degree Days 14    
Moisture  
Dew Point 43 °F    
Average Humidity 83    
Maximum Humidity 100    
Minimum Humidity 48    
Precipitation  
Precipitation 0.00 in - - ()
Sea Level Pressure  
Sea Level Pressure 29.73 in    
Wind  
Wind Speed 7 mph (SSE)    
Max Wind Speed 15 mph    
Max Gust Speed 20 mph    
Visibility 10 miles    
Events Rain    
Averages and records for this station are not official NWS values.
T = Trace of Precipitation, MM = Missing Value Source: NWS Daily Summary

Daily Weather History Graph

Daily Weather History Graph

Search for Another Location

Airport:

Trip Planner

Search our weather history database for the weather conditions in past years. The results will help you decide how hot, cold, wet, or windy it might be!

Date:

Astronomy

Oct. 16, 2012 Rise Set
Actual Time 7:10 AM CDT 6:07 PM CDT
Civil Twilight 6:41 AM CDT 6:36 PM CDT
Nautical Twilight 6:07 AM CDT 7:10 PM CDT
Astronomical Twilight 5:34 AM CDT 7:43 PM CDT
Moon 8:38 AM CDT (10/16) 6:46 PM CDT (10/16)
Length of Visible Light 11h 55m
Length of Day
10h 56m
New Moon, 2% of the Moon is Illuminated
Oct 16
New Moon
Oct 21
First Quarter
Oct 29
Full
Nov 6
Last Quarter
Nov 13
New

Hourly Weather History & Observations

Time (CDT) Temp. Windchill Dew Point Humidity Pressure Visibility Wind Dir Wind Speed Gust Speed Precip Events Conditions
12:15 AM 39.2 °F 35.9 °F 39.2 °F 100% 29.89 in 10.0 mi South 4.6 mph - N/A   Scattered Clouds
12:35 AM 41.0 °F 38.0 °F 39.2 °F 93% 29.90 in 10.0 mi South 4.6 mph - N/A   Mostly Cloudy
12:55 AM 41.0 °F 36.4 °F 39.2 °F 93% 29.90 in 10.0 mi South 6.9 mph - N/A   Overcast
1:15 AM 42.8 °F 38.6 °F 41.0 °F 93% 29.90 in 10.0 mi South 6.9 mph - N/A   Overcast
1:35 AM 41.0 °F 38.0 °F 39.2 °F 93% 29.90 in 10.0 mi SSE 4.6 mph - N/A   Mostly Cloudy
1:55 AM 41.0 °F 39.0 °F 37.4 °F 87% 29.90 in 10.0 mi South 3.5 mph - N/A   Mostly Cloudy
2:15 AM 41.0 °F 39.0 °F 39.2 °F 93% 29.89 in 10.0 mi SSE 3.5 mph - N/A   Overcast
2:35 AM 41.0 °F 37.1 °F 39.2 °F 93% 29.88 in 10.0 mi SSE 5.8 mph - N/A   Overcast
2:55 AM 41.0 °F 37.1 °F 39.2 °F 93% 29.87 in 10.0 mi SSE 5.8 mph - N/A   Mostly Cloudy
3:15 AM 42.8 °F 39.3 °F 39.2 °F 87% 29.87 in 10.0 mi SSE 5.8 mph - N/A   Overcast
3:35 AM 42.8 °F 37.5 °F 41.0 °F 93% 29.86 in 10.0 mi South 9.2 mph - N/A   Mostly Cloudy
3:55 AM 42.8 °F 38.6 °F 41.0 °F 93% 29.86 in 10.0 mi South 6.9 mph - N/A   Overcast
4:15 AM 42.8 °F 38.0 °F 41.0 °F 93% 29.84 in 10.0 mi SSE 8.1 mph - N/A   Overcast
4:35 AM 42.8 °F 38.0 °F 41.0 °F 93% 29.85 in 10.0 mi South 8.1 mph - N/A   Overcast
4:55 AM 42.8 °F 38.6 °F 41.0 °F 93% 29.84 in 10.0 mi SSE 6.9 mph - N/A   Overcast
5:15 AM 42.8 °F 39.3 °F 41.0 °F 93% 29.84 in 10.0 mi SSE 5.8 mph - N/A   Overcast
7:45 AM 46.4 °F 42.4 °F 42.8 °F 87% 29.82 in 10.0 mi SSE 8.1 mph - N/A   Mostly Cloudy
9:45 AM 48.2 °F - 42.8 °F 82% 29.79 in 10.0 mi SSE 13.8 mph 18.4 mph N/A   Mostly Cloudy
9:54 AM 50.0 °F - 42.8 °F 76% 29.77 in 10.0 mi South 11.5 mph - N/A   Mostly Cloudy
10:45 AM 53.6 °F - 42.8 °F 67% 29.75 in 10.0 mi South 13.8 mph - N/A   Mostly Cloudy
12:45 PM 55.4 °F - 44.6 °F 67% 29.73 in 10.0 mi South 13.8 mph 19.6 mph N/A   Mostly Cloudy
1:45 PM 60.8 °F - 42.8 °F 52% 29.65 in 10.0 mi SSE 13.8 mph - N/A   Mostly Cloudy
2:45 PM 62.6 °F - 42.8 °F 48% 29.61 in 10.0 mi SSE 15.0 mph - N/A   Scattered Clouds
3:45 PM 62.6 °F - 42.8 °F 48% 29.60 in 10.0 mi SSE 11.5 mph - N/A   Scattered Clouds
4:45 PM 59.0 °F - 46.4 °F 63% 29.57 in 10.0 mi ESE 11.5 mph - N/A   Scattered Clouds
5:45 PM 55.4 °F - 46.4 °F 72% 29.57 in 10.0 mi SE 10.4 mph - N/A   Scattered Clouds
6:45 PM 53.6 °F - 46.4 °F 77% 29.55 in 10.0 mi SE 8.1 mph - N/A   Scattered Clouds
7:45 PM 53.6 °F - 46.4 °F 77% 29.54 in 10.0 mi ESE 9.2 mph - N/A   Scattered Clouds
8:45 PM 53.6 °F - 46.4 °F 77% 29.54 in 10.0 mi ESE 6.9 mph - N/A   Scattered Clouds
9:45 PM 53.6 °F - 48.2 °F 82% 29.52 in 7.0 mi East 6.9 mph - N/A Rain Light Rain
10:45 PM 51.8 °F - 50.0 °F 94% 29.50 in 10.0 mi SE 5.8 mph - N/A   Scattered Clouds
10:55 PM 51.8 °F - 48.2 °F 88% 29.49 in 10.0 mi SE 8.1 mph - N/A   Clear
11:15 PM 51.8 °F - 48.2 °F 88% 29.48 in 10.0 mi SE 9.2 mph - N/A   Clear
11:35 PM 50.0 °F - 48.2 °F 94% 29.47 in 10.0 mi SE 5.8 mph - N/A   Clear
11:55 PM 51.8 °F - 48.2 °F 88% 29.47 in 10.0 mi SE 6.9 mph - N/A   Clear